Weather in Bykasovo

Russia / Vladimir Oblast     55°57′56″N   42°35′09″E
temp.,
°C
wind,
m/s
gust,
m/s
humid.,
%
clouds,
%
prec.,
mm/h
press.,
hPa
HPBL,
m
2 march, tue
tue200:00+1wsw61395100 0.1 1010676
03:00+1wsw61495100 0.3 1007730
06:00+1w61396100 0.0 1004775
09:00+1wnw51196100 0.3 1004830
12:00+2nw6118366 0.3 10031150
15:00+1wnw598275 0.4 10041057
18:00−1wnw3995100 0.2 1004485
21:00−2nw4119199 0.6 1005797
3 march, wed
wed300:00−4wnw4128994 0.0 1005711
03:00−6nw5128975 0.1 1007567
06:00−7nw51289100 0.1 1008694
09:00−7nw61187100 0.1 1010683
12:00−4nw51078100 0.0 1010783
15:00−3wnw588067 0.1 1010962
18:00−3wnw4109399 0.1 1009573
21:00−4w4119294 0.1 1010468
4 march, thu
thu400:00−4w4119460 0.0 1009491
03:00−4wsw5129365 0.0 1007435
06:00−3sw61291100 0.0 1003632
09:00−1wsw71394100 1.0 1000953
12:000wsw71396100 0.8 997931
15:000wsw71394100 1.2 9961100
18:000wsw71494100 0.3 995949
21:00−1wnw51281100 0.9 996811
5 march, fri
fri500:00−5wnw4118597 0.0 998477
03:00−7wnw4109049 0.0 1001425
06:00−9wnw36940 0.0 1004202
09:00−8nw35886 0.0 1006317
12:00−6nw237518 0.0 1007500
15:00−4nnw126811 0.0 1008619
18:00−8ene118360 0.0 100821
21:00−9ese128780 0.0 100921
6 march, sat
sat600:00−10ene2291100 0.0 100926
03:00−11ne229390 0.0 100834
06:00−13nne229030 0.0 100847
09:00−11n248654 0.0 1008211
12:00−7nw247989 0.0 1008515
15:00−6nw348190 0.0 1008670
18:00−8w2593100 0.4 1009185
21:00−10nw2693100 0.7 1010239